RYR23BF EGPH-EIDW

Flight info

Callsign RYR23BF
Flight time 0h 49m
Altitude 22000
Route GOSAM P600 BLACA P620 NIMAT NIMAT3R
Aircraft B738/M-SDE2E3FGHIRWXY/LB1

Departure

Time 2026-04-20 18:06
Airport Edinburgh Airport (EGPH)

Arrival

Time 2026-04-20 18:56
Airport Dublin Airport (EIDW)
Time Latitude Longitude Altitude Speed Heading
2026-04-20 17:34 55.94612 -3.36634 115 ft 0 kts 89°
2026-04-20 17:53 55.94612 -3.36659 112 ft 4 kts 84°
2026-04-20 17:53 55.94606 -3.36705 111 ft 4 kts 60°
2026-04-20 17:53 55.94590 -3.36732 112 ft 3 kts
2026-04-20 17:53 55.94586 -3.36733 112 ft 0 kts 359°
2026-04-20 17:56 55.94587 -3.36733 112 ft 2 kts 359°
2026-04-20 17:56 55.94621 -3.36735 114 ft 7 kts 358°
2026-04-20 17:57 55.94663 -3.36737 115 ft 4 kts 359°
2026-04-20 17:57 55.94697 -3.36738 115 ft 4 kts 359°
2026-04-20 17:57 55.94703 -3.36738 115 ft 0 kts 359°
2026-04-20 18:01 55.94709 -3.36738 115 ft 2 kts 359°
2026-04-20 18:01 55.94722 -3.36739 114 ft 2 kts 359°
2026-04-20 18:01 55.94737 -3.36741 115 ft 4 kts 350°
2026-04-20 18:02 55.94776 -3.36766 113 ft 8 kts 344°
2026-04-20 18:02 55.94838 -3.36779 115 ft 10 kts 359°
2026-04-20 18:02 55.94903 -3.36812 113 ft 10 kts 324°
2026-04-20 18:02 55.94919 -3.36915 115 ft 10 kts 244°
2026-04-20 18:03 55.94882 -3.37024 112 ft 12 kts 239°
2026-04-20 18:03 55.94827 -3.37180 114 ft 18 kts 240°
2026-04-20 18:03 55.94758 -3.37388 113 ft 20 kts 239°
2026-04-20 18:03 55.94688 -3.37596 115 ft 19 kts 239°
2026-04-20 18:04 55.94622 -3.37788 115 ft 15 kts 238°
2026-04-20 18:04 55.94588 -3.37915 114 ft 9 kts 273°
2026-04-20 18:04 55.94606 -3.37961 112 ft 3 kts 321°
2026-04-20 18:04 55.94620 -3.37979 111 ft 2 kts 324°
2026-04-20 18:05 55.94679 -3.38046 113 ft 6 kts 329°
2026-04-20 18:05 55.94723 -3.38057 114 ft 7 kts 33°
2026-04-20 18:05 55.94759 -3.37963 111 ft 22 kts 57°
2026-04-20 18:06 55.94975 -3.37324 111 ft 97 kts 59°
2026-04-20 18:06 55.95432 -3.35959 153 ft 153 kts 60°
2026-04-20 18:06 55.95979 -3.34381 1039 ft 146 kts 58°
2026-04-20 18:06 55.96698 -3.33010 1801 ft 158 kts 41°
2026-04-20 18:07 55.97609 -3.31718 2440 ft 179 kts 44°
2026-04-20 18:07 55.98593 -3.30139 2969 ft 198 kts 45°
2026-04-20 18:07 55.99685 -3.28559 3617 ft 211 kts 29°
2026-04-20 18:07 56.01196 -3.28036 4050 ft 241 kts 355°
2026-04-20 18:08 56.02744 -3.29342 4667 ft 262 kts 316°
2026-04-20 18:08 56.03549 -3.32182 5780 ft 261 kts 279°
2026-04-20 18:08 56.03343 -3.35429 6590 ft 269 kts 250°
2026-04-20 18:08 56.02709 -3.38628 7412 ft 276 kts 251°
2026-04-20 18:09 56.02128 -3.41953 8170 ft 285 kts 252°
2026-04-20 18:09 56.01580 -3.45367 9099 ft 286 kts 252°
2026-04-20 18:09 56.01056 -3.48842 9938 ft 292 kts 254°
2026-04-20 18:09 56.00547 -3.52368 10807 ft 294 kts 254°
2026-04-20 18:10 56.00023 -3.56020 11198 ft 315 kts 254°
2026-04-20 18:10 55.99459 -3.59965 11497 ft 337 kts 254°
2026-04-20 18:10 55.98869 -3.64093 12094 ft 346 kts 254°
2026-04-20 18:10 55.98271 -3.68268 12904 ft 351 kts 253°
2026-04-20 18:11 55.97661 -3.72519 13717 ft 354 kts 254°
2026-04-20 18:11 55.97045 -3.76796 14463 ft 358 kts 253°
2026-04-20 18:11 55.96420 -3.81131 15147 ft 363 kts 253°
2026-04-20 18:11 55.95786 -3.85515 15874 ft 366 kts 253°
2026-04-20 18:12 55.95145 -3.89932 16591 ft 370 kts 253°
2026-04-20 18:12 55.94495 -3.94390 17309 ft 373 kts 253°
2026-04-20 18:12 55.93739 -3.98800 18189 ft 370 kts 244°
2026-04-20 18:12 55.92429 -4.02602 19081 ft 362 kts 228°
2026-04-20 18:13 55.90689 -4.05773 19915 ft 356 kts 216°
2026-04-20 18:13 55.88682 -4.08297 20699 ft 352 kts 211°
2026-04-20 18:13 55.86644 -4.10712 21486 ft 351 kts 211°
2026-04-20 18:13 55.84614 -4.13121 22141 ft 351 kts 211°
2026-04-20 18:14 55.82595 -4.15544 22338 ft 349 kts 212°
2026-04-20 18:14 55.80588 -4.17969 22336 ft 349 kts 212°
2026-04-20 18:14 55.78583 -4.20396 22351 ft 349 kts 212°
2026-04-20 18:14 55.76586 -4.22869 22359 ft 351 kts 213°
2026-04-20 18:15 55.74587 -4.25365 22352 ft 352 kts 213°
2026-04-20 18:15 55.72582 -4.27862 22354 ft 353 kts 212°
2026-04-20 18:15 55.70572 -4.30360 22352 ft 352 kts 212°
2026-04-20 18:15 55.68580 -4.32828 22337 ft 347 kts 214°
2026-04-20 18:16 55.66612 -4.35262 22342 ft 344 kts 213°
2026-04-20 18:16 55.64646 -4.37689 22347 ft 345 kts 213°
2026-04-20 18:16 55.62679 -4.40113 22349 ft 345 kts 212°
2026-04-20 18:16 55.60706 -4.42542 22340 ft 346 kts 213°
2026-04-20 18:17 55.58731 -4.44973 22332 ft 346 kts 213°
2026-04-20 18:17 55.56754 -4.47401 22352 ft 346 kts 214°
2026-04-20 18:17 55.54775 -4.49831 22342 ft 346 kts 213°
2026-04-20 18:17 55.52797 -4.52258 22349 ft 346 kts 213°
2026-04-20 18:18 55.50819 -4.54681 22344 ft 346 kts 214°
2026-04-20 18:18 55.48845 -4.57096 22347 ft 345 kts 213°
2026-04-20 18:18 55.46898 -4.59476 22347 ft 345 kts 214°
2026-04-20 18:18 55.44928 -4.61881 22345 ft 344 kts 214°
2026-04-20 18:19 55.42958 -4.64281 22335 ft 344 kts 215°
2026-04-20 18:19 55.40989 -4.66678 22340 ft 344 kts 215°
2026-04-20 18:19 55.39023 -4.69070 22323 ft 344 kts 215°
2026-04-20 18:19 55.37058 -4.71457 22318 ft 344 kts 215°
2026-04-20 18:20 55.35090 -4.73845 22323 ft 344 kts 215°
2026-04-20 18:20 55.33121 -4.76230 22323 ft 344 kts 215°
2026-04-20 18:20 55.31138 -4.78585 22317 ft 344 kts 212°
2026-04-20 18:20 55.29038 -4.80605 22323 ft 345 kts 207°
2026-04-20 18:21 55.26881 -4.82445 22326 ft 345 kts 206°
2026-04-20 18:21 55.24717 -4.84269 22318 ft 345 kts 206°
2026-04-20 18:21 55.22562 -4.86121 22311 ft 345 kts 207°
2026-04-20 18:21 55.20411 -4.87997 22312 ft 346 kts 207°
2026-04-20 18:22 55.18261 -4.89880 22316 ft 345 kts 207°
2026-04-20 18:22 55.16112 -4.91764 22294 ft 345 kts 208°
2026-04-20 18:22 55.13964 -4.93644 22302 ft 345 kts 208°
2026-04-20 18:22 55.11811 -4.95522 22320 ft 345 kts 209°
2026-04-20 18:23 55.09659 -4.97400 22315 ft 346 kts 209°
2026-04-20 18:23 55.07537 -4.99249 22312 ft 346 kts 209°
2026-04-20 18:23 55.05382 -5.01124 22309 ft 346 kts 209°
2026-04-20 18:23 55.03225 -5.02999 22313 ft 346 kts 209°
2026-04-20 18:24 55.01067 -5.04872 22301 ft 346 kts 209°
2026-04-20 18:24 54.98910 -5.06743 22303 ft 346 kts 209°
2026-04-20 18:24 54.96754 -5.08611 22304 ft 346 kts 208°
2026-04-20 18:24 54.94600 -5.10476 22311 ft 346 kts 208°
2026-04-20 18:25 54.92446 -5.12337 22308 ft 346 kts 208°
2026-04-20 18:25 54.90294 -5.14194 22309 ft 346 kts 208°
2026-04-20 18:25 54.88099 -5.15916 22296 ft 348 kts 202°
2026-04-20 18:25 54.85750 -5.16982 22313 ft 350 kts 195°
2026-04-20 18:26 54.83365 -5.17844 22306 ft 351 kts 194°
2026-04-20 18:26 54.80970 -5.18686 22305 ft 351 kts 194°
2026-04-20 18:26 54.78573 -5.19533 22307 ft 352 kts 194°
2026-04-20 18:26 54.76173 -5.20391 22309 ft 352 kts 194°
2026-04-20 18:27 54.73773 -5.21260 22308 ft 353 kts 194°
2026-04-20 18:27 54.71371 -5.22134 22308 ft 353 kts 195°
2026-04-20 18:27 54.68968 -5.23011 22306 ft 353 kts 195°
2026-04-20 18:27 54.66565 -5.23890 22308 ft 353 kts 195°
2026-04-20 18:28 54.64162 -5.24768 22308 ft 353 kts 195°
2026-04-20 18:28 54.61759 -5.25646 22295 ft 353 kts 195°
2026-04-20 18:28 54.59354 -5.26524 22305 ft 353 kts 195°
2026-04-20 18:28 54.56947 -5.27401 22305 ft 354 kts 195°
2026-04-20 18:29 54.54540 -5.28278 22310 ft 354 kts 195°
2026-04-20 18:29 54.52125 -5.29155 22303 ft 355 kts 195°
2026-04-20 18:29 54.49714 -5.30058 22305 ft 354 kts 198°
2026-04-20 18:29 54.47413 -5.31490 22301 ft 351 kts 208°
2026-04-20 18:30 54.45252 -5.33314 22303 ft 351 kts 210°
2026-04-20 18:30 54.43074 -5.35199 22306 ft 351 kts 210°
2026-04-20 18:30 54.40893 -5.37084 22296 ft 351 kts 210°
2026-04-20 18:30 54.38711 -5.38958 22296 ft 351 kts 210°
2026-04-20 18:31 54.36522 -5.40822 22287 ft 351 kts 210°
2026-04-20 18:31 54.34328 -5.42681 22296 ft 352 kts 210°
2026-04-20 18:31 54.32133 -5.44533 22303 ft 352 kts 210°
2026-04-20 18:31 54.29934 -5.46382 22301 ft 351 kts 210°
2026-04-20 18:32 54.27774 -5.48194 22282 ft 341 kts 210°
2026-04-20 18:32 54.25658 -5.49966 22047 ft 336 kts 210°
2026-04-20 18:32 54.23576 -5.51710 21806 ft 332 kts 210°
2026-04-20 18:32 54.21512 -5.53439 21504 ft 328 kts 209°
2026-04-20 18:33 54.19471 -5.55147 21173 ft 326 kts 209°
2026-04-20 18:33 54.17444 -5.56840 20854 ft 323 kts 209°
2026-04-20 18:33 54.15434 -5.58516 20540 ft 320 kts 209°
2026-04-20 18:33 54.13435 -5.60180 20228 ft 318 kts 209°
2026-04-20 18:34 54.11453 -5.61828 19909 ft 316 kts 209°
2026-04-20 18:34 54.09487 -5.63461 19605 ft 314 kts 208°
2026-04-20 18:34 54.07531 -5.65085 19304 ft 312 kts 208°
2026-04-20 18:34 54.05586 -5.66699 19008 ft 310 kts 208°
2026-04-20 18:35 54.03652 -5.68303 18707 ft 309 kts 208°
2026-04-20 18:35 54.01725 -5.69899 18377 ft 307 kts 208°
2026-04-20 18:35 53.99807 -5.71484 18046 ft 306 kts 208°
2026-04-20 18:35 53.97902 -5.73056 17735 ft 303 kts 208°
2026-04-20 18:36 53.95965 -5.74310 17422 ft 304 kts 190°
2026-04-20 18:36 53.93868 -5.74554 17181 ft 300 kts 184°
2026-04-20 18:36 53.91783 -5.74663 16856 ft 299 kts 183°
2026-04-20 18:36 53.89707 -5.74769 16555 ft 297 kts 183°
2026-04-20 18:37 53.87645 -5.74885 16257 ft 296 kts 184°
2026-04-20 18:37 53.85594 -5.75011 15958 ft 294 kts 184°
2026-04-20 18:37 53.83559 -5.75144 15674 ft 292 kts 184°
2026-04-20 18:37 53.81535 -5.75282 15395 ft 290 kts 184°
2026-04-20 18:38 53.79522 -5.75421 15111 ft 289 kts 184°
2026-04-20 18:38 53.77517 -5.75561 14834 ft 287 kts 184°
2026-04-20 18:38 53.75521 -5.75701 14546 ft 286 kts 184°
2026-04-20 18:38 53.73537 -5.75841 14271 ft 284 kts 184°
2026-04-20 18:39 53.71564 -5.75980 13982 ft 283 kts 184°
2026-04-20 18:39 53.69603 -5.76118 13682 ft 282 kts 184°
2026-04-20 18:39 53.67650 -5.76260 13407 ft 279 kts 185°
2026-04-20 18:39 53.65814 -5.77104 13113 ft 272 kts 214°
2026-04-20 18:40 53.64472 -5.79263 12869 ft 268 kts 238°
2026-04-20 18:40 53.63722 -5.82124 12608 ft 269 kts 256°
2026-04-20 18:40 53.63291 -5.85235 12332 ft 278 kts 258°
2026-04-20 18:40 53.62880 -5.88462 12031 ft 284 kts 258°
2026-04-20 18:41 53.62468 -5.91700 11720 ft 282 kts 258°
2026-04-20 18:41 53.62167 -5.94952 11414 ft 280 kts 268°
2026-04-20 18:41 53.62109 -5.98215 11141 ft 276 kts 268°
2026-04-20 18:41 53.62059 -6.01400 10873 ft 268 kts 268°
2026-04-20 18:42 53.62029 -6.03458 10693 ft 263 kts 268°
2026-04-20 18:42 53.61975 -6.07509 10372 ft 260 kts 268°
2026-04-20 18:42 53.61950 -6.09562 10203 ft 259 kts 268°
2026-04-20 18:42 53.61903 -6.13553 9843 ft 256 kts 268°
2026-04-20 18:43 53.61873 -6.16544 9582 ft 254 kts 268°
2026-04-20 18:43 53.61843 -6.19482 9437 ft 248 kts 268°
2026-04-20 18:43 53.61822 -6.21431 9338 ft 245 kts 268°
2026-04-20 18:43 53.61793 -6.24254 9207 ft 244 kts 269°
2026-04-20 18:44 53.61750 -6.27124 9090 ft 246 kts 269°
2026-04-20 18:44 53.61701 -6.30010 8964 ft 247 kts 268°
2026-04-20 18:44 53.61648 -6.32912 8805 ft 248 kts 268°
2026-04-20 18:44 53.61592 -6.35809 8548 ft 247 kts 268°
2026-04-20 18:45 53.61534 -6.38679 8320 ft 244 kts 268°
2026-04-20 18:45 53.61475 -6.41526 8086 ft 242 kts 268°
2026-04-20 18:45 53.61414 -6.44353 7852 ft 241 kts 268°
2026-04-20 18:45 53.61350 -6.47154 7648 ft 238 kts 268°
2026-04-20 18:46 53.61285 -6.49927 7419 ft 236 kts 268°
2026-04-20 18:46 53.61221 -6.52666 7253 ft 233 kts 268°
2026-04-20 18:46 53.61155 -6.55418 7043 ft 238 kts 269°
2026-04-20 18:46 53.61081 -6.58213 6956 ft 240 kts 268°
2026-04-20 18:47 53.61007 -6.61051 6852 ft 245 kts 268°
2026-04-20 18:47 53.60930 -6.63934 6705 ft 249 kts 268°
2026-04-20 18:47 53.60776 -6.66861 6527 ft 253 kts 255°
2026-04-20 18:47 53.59946 -6.69417 6367 ft 249 kts 224°
2026-04-20 18:48 53.58501 -6.70879 6212 ft 241 kts 194°
2026-04-20 18:48 53.56875 -6.71480 6096 ft 239 kts 189°
2026-04-20 18:48 53.55226 -6.71986 5864 ft 243 kts 188°
2026-04-20 18:48 53.53574 -6.72447 5682 ft 243 kts 188°
2026-04-20 18:49 53.51915 -6.72879 5529 ft 239 kts 188°
2026-04-20 18:49 53.50276 -6.73298 5389 ft 238 kts 188°
2026-04-20 18:49 53.48629 -6.73361 5251 ft 238 kts 165°
2026-04-20 18:49 53.47199 -6.72075 5134 ft 234 kts 135°
2026-04-20 18:50 53.46170 -6.70002 5031 ft 228 kts 115°
2026-04-20 18:50 53.45888 -6.67539 4945 ft 211 kts 87°
2026-04-20 18:50 53.45846 -6.65107 4668 ft 204 kts 93°
2026-04-20 18:50 53.45714 -6.62783 4377 ft 196 kts 94°
2026-04-20 18:51 53.45580 -6.60548 4119 ft 189 kts 94°
2026-04-20 18:51 53.45450 -6.58375 3872 ft 185 kts 93°
2026-04-20 18:51 53.45326 -6.56263 3623 ft 179 kts 93°
2026-04-20 18:51 53.45208 -6.54228 3382 ft 171 kts 94°
2026-04-20 18:52 53.45094 -6.52264 3155 ft 167 kts 94°
2026-04-20 18:52 53.44983 -6.50341 2927 ft 164 kts 94°
2026-04-20 18:52 53.44873 -6.48429 2700 ft 163 kts 95°
2026-04-20 18:52 53.44767 -6.46601 2495 ft 149 kts 95°
2026-04-20 18:53 53.44669 -6.44879 2282 ft 149 kts 95°
2026-04-20 18:53 53.44571 -6.43175 2064 ft 145 kts 96°
2026-04-20 18:53 53.44475 -6.41496 1875 ft 144 kts 95°
2026-04-20 18:53 53.44380 -6.39828 1664 ft 143 kts 96°
2026-04-20 18:54 53.44286 -6.38172 1469 ft 143 kts 95°
2026-04-20 18:54 53.44193 -6.36530 1270 ft 140 kts 95°
2026-04-20 18:54 53.44100 -6.34882 1081 ft 143 kts 95°
2026-04-20 18:54 53.44009 -6.33211 867 ft 144 kts 93°
2026-04-20 18:55 53.43946 -6.31578 702 ft 138 kts 100°
2026-04-20 18:55 53.43812 -6.29989 487 ft 137 kts 95°
2026-04-20 18:55 53.43738 -6.28387 293 ft 139 kts 98°
2026-04-20 18:55 53.43646 -6.26807 219 ft 121 kts 95°
2026-04-20 18:56 53.43589 -6.25773 211 ft 62 kts 95°
2026-04-20 18:56 53.43523 -6.25222 213 ft 31 kts 116°
2026-04-20 18:56 53.43446 -6.24990 212 ft 16 kts 120°
2026-04-20 18:56 53.43418 -6.24909 212 ft 0 kts 120°
2026-04-20 18:57 53.43413 -6.24897 210 ft 4 kts 120°
2026-04-20 18:57 53.43383 -6.24812 210 ft 13 kts 120°
2026-04-20 18:57 53.43357 -6.24637 213 ft 17 kts 96°
2026-04-20 18:57 53.43346 -6.24468 210 ft 12 kts 101°
2026-04-20 18:58 53.43280 -6.24404 214 ft 12 kts 186°
2026-04-20 18:58 53.43207 -6.24427 213 ft 10 kts 210°
2026-04-20 18:58 53.43191 -6.24533 210 ft 10 kts 275°
2026-04-20 18:58 53.43195 -6.24637 210 ft 9 kts 268°
2026-04-20 18:59 53.43152 -6.24690 215 ft 9 kts 186°
2026-04-20 18:59 53.43104 -6.24697 210 ft 2 kts 185°
2026-04-20 18:59 53.43095 -6.24699 210 ft 0 kts 185°